DW6162 Weather Reports


Display with metric or nautical units.
time (UTC)temp
F
wind
direction
speed
MPH
gust
MPH
rain 1hr
in
rain 24hr
in
rain mn
in
humidity
%
barometer
mb
20260904011046 74 22 2.0 11.0 0.00 0.69 0.64 80 1016.5
20260904010145 74 24 2.0 7.0 0.00 0.69 0.64 79 1016.4
20260904010104 73 25 2.0 6.0 0.00 0.69 0.64 80 1013.3
20260904005245 74 15 3.0 6.0 0.00 0.69 0.64 79 1016.3
20260904004502 74 79 2.0 7.0 0.00 0.73 0.64 81 1013.0
20260904004345 74 11 2.0 7.0 0.00 0.69 0.64 81 1016.2
20260904003445 74 29 1.0 6.0 0.00 0.69 0.64 84 1016.2
20260904003102 74 58 0.0 6.0 0.00 0.73 0.64 84 1012.8
20260904002545 74 33 1.0 6.0 0.00 0.73 0.64 84 1016.1
20260904001646 74 39 1.0 5.0 0.00 0.73 0.64 85 1016.1
20260904001502 74 318 1.0 4.0 0.00 0.73 0.64 86 1012.8
20260904000745 75 25 2.0 6.0 0.00 0.73 0.64 85 1016.2
20260904000136 74 201 3.0 6.0 0.00 0.73 0.64 86 1013.0
20260903234945 74 18 1.0 4.0 0.00 0.73 0.64 88 1016.0
20260903234503 74 56 0.0 3.0 0.00 0.73 0.64 88 1012.7
20260903234045 75 55 1.0 2.0 0.00 0.73 0.64 88 1015.9
20260903233145 75 19 1.0 3.0 0.00 0.73 0.64 87 1016.0
20260903233103 74 29 0.0 3.0 0.00 0.73 0.64 87 1012.8
20260903232245 75 40 1.0 3.0 0.00 0.73 0.64 87 1016.2
20260903231502 75 350 1.0 4.0 0.00 0.73 0.64 86 1013.0
20260903231345 76 36 2.0 5.0 0.00 0.73 0.64 86 1016.1
20260903230445 76 42 1.0 5.0 0.00 0.73 0.64 85 1016.4
20260903230113 75 54 0.0 2.0 0.00 0.73 0.64 85 1013.1
20260903225545 76 14 0.0 3.0 0.00 0.73 0.64 85 1016.3
20260903224645 76 13 1.0 2.0 0.00 0.73 0.64 84 1016.5
20260903224506 75 33 0.0 2.0 0.00 0.73 0.64 84 1013.4
20260903223101 76 109 0.0 3.0 0.00 0.73 0.64 82 1013.2
20260903222845 77 12 0.0 3.0 0.00 0.73 0.64 82 1016.3
20260903221945 77 19 0.0 2.0 0.00 0.73 0.64 81 1016.4
20260903221503 77 4 0.0 2.0 0.00 0.73 0.64 81 1012.8
20260903221045 78 19 1.0 4.0 0.00 0.73 0.64 80 1015.9
20260903220145 78 46 0.0 3.0 0.00 0.73 0.64 81 1015.9
20260903220120 77 44 0.0 1.0 0.00 0.73 0.64 82 1012.6
20260903215245 78 38 0.0 1.0 0.00 0.73 0.64 81 1015.7
20260903214502 78 37 0.0 1.0 0.00 0.73 0.64 80 1012.3
20260903214345 78 46 0.0 2.0 0.00 0.73 0.64 79 1015.6
20260903213445 79 51 0.0 3.0 0.00 0.73 0.64 78 1015.5
20260903213105 78 111 0.0 3.0 0.00 0.73 0.64 78 1012.3
20260903212545 79 14 2.0 5.0 0.00 0.73 0.64 77 1015.4
20260903211645 79 23 2.0 6.0 0.00 0.73 0.64 75 1015.4
20260903211504 79 325 2.0 6.0 0.00 0.73 0.64 76 1012.1
20260903210108 80 22 1.0 5.0 0.00 0.73 0.64 74 1012.4
20260903204945 81 32 2.0 5.0 0.00 0.73 0.64 74 1015.5
20260903204504 81 22 1.0 6.0 0.00 0.74 0.64 73 1012.2
20260903204045 81 24 1.0 4.0 0.00 0.73 0.64 74 1015.2
20260903203145 81 45 2.0 6.0 0.00 0.73 0.64 74 1015.4
20260903203103 80 359 1.0 5.0 0.00 0.74 0.64 74 1012.1
20260903202245 80 64 1.0 8.0 0.00 0.73 0.64 76 1015.5
20260903201505 80 84 1.0 6.0 0.00 0.74 0.64 74 1012.3
20260903200445 80 27 1.0 6.0 0.00 0.74 0.64 76 1015.7
20260903195545 80 34 2.0 6.0 0.00 0.74 0.64 74 1015.9
20260903194646 81 63 1.0 6.0 0.00 0.74 0.64 74 1016.0
20260903194503 80 30 2.0 5.0 0.00 0.74 0.64 73 1012.8
20260903193102 80 68 2.0 7.0 0.00 0.74 0.64 72 1012.7
20260903192845 81 67 2.0 8.0 0.00 0.74 0.64 73 1016.0
20260903191945 81 34 2.0 6.0 0.00 0.74 0.64 72 1016.1
20260903191505 80 195 1.0 7.0 0.00 0.74 0.64 72 1012.9
20260903191045 81 75 2.0 6.0 0.00 0.74 0.64 72 1016.3
20260903190145 82 119 2.0 6.0 0.00 0.74 0.64 71 1016.3
20260903184503 81 40 0.0 5.0 0.00 0.74 0.64 71 1013.1
20260903184345 82 71 1.0 5.0 0.00 0.74 0.64 71 1016.2
20260903183445 82 51 1.0 6.0 0.00 0.74 0.64 74 1016.4
20260903183103 81 44 1.0 5.0 0.00 0.74 0.64 71 1013.1
20260903182545 81 68 2.0 6.0 0.00 0.74 0.64 72 1016.3
20260903181645 81 53 2.0 12.0 0.00 0.74 0.64 73 1016.4
20260903181503 81 54 1.0 12.0 0.00 0.74 0.64 73 1013.2
20260903180745 81 64 2.0 6.0 0.00 0.74 0.64 73 1016.4
20260903180110 80 78 2.0 6.0 0.00 0.74 0.64 73 1013.4
20260903175846 80 34 2.0 7.0 0.00 0.74 0.64 74 1016.5
20260903174945 79 54 2.0 7.0 0.00 0.74 0.64 76 1016.6
20260903174506 79 113 2.0 9.0 0.00 0.87 0.64 78 1013.5
20260903174045 79 43 2.0 10.0 0.00 0.78 0.64 76 1016.7
20260903173120 78 64 2.0 8.0 0.00 0.87 0.64 76 1013.7
20260903171502 78 37 1.0 4.0 0.00 0.87 0.64 79 1013.8
20260903171345 78 79 1.0 7.0 0.00 0.87 0.64 79 1017.0
20260903170446 78 89 1.0 7.0 0.00 0.87 0.64 78 1016.7
20260903170112 77 106 0.0 4.0 0.00 0.87 0.64 81 1013.7
20260903164645 78 99 1.0 4.0 0.00 0.87 0.64 83 1016.9
20260903164503 77 77 1.0 4.0 0.00 0.88 0.64 81 1013.8
20260903163745 77 84 1.0 4.0 0.00 0.87 0.64 82 1016.8
20260903163110 77 91 1.0 3.0 0.00 0.88 0.64 83 1014.0
20260903162845 77 352 1.0 5.0 0.00 0.87 0.64 82 1017.0
20260903161945 76 91 1.0 6.0 0.00 0.88 0.64 84 1017.2
20260903161507 76 39 0.0 5.0 0.00 0.88 0.64 85 1014.3
20260903161045 76 104 2.0 5.0 0.00 0.88 0.64 83 1017.3
20260903160145 76 10 2.0 10.0 0.00 0.88 0.64 85 1017.3
20260903160104 75 5 4.0 10.0 0.00 0.88 0.64 84 1014.4
20260903155245 75 68 1.0 7.0 0.00 0.88 0.64 86 1017.3
20260903154503 74 125 1.0 7.0 0.00 0.88 0.64 86 1014.5
20260903154345 74 15 2.0 7.0 0.00 0.88 0.64 87 1017.4
20260903153445 74 51 1.0 4.0 0.00 0.88 0.64 88 1017.6
20260903153102 73 224 1.0 6.0 0.00 0.88 0.64 89 1014.7
20260903152545 73 34 2.0 6.0 0.00 0.88 0.64 89 1017.7
20260903151645 72 44 2.0 6.0 0.00 0.88 0.64 91 1017.6
20260903151504 71 78 1.0 3.0 0.00 0.88 0.64 92 1014.8
20260903150745 71 49 2.0 6.0 0.00 0.88 0.64 93 1017.9
20260903150114 70 211 1.0 5.0 0.00 0.88 0.64 95 1014.9
20260903145845 70 63 1.0 5.0 0.00 0.88 0.64 95 1017.9
20260903144945 69 71 1.0 4.0 0.00 0.88 0.64 96 1017.8
20260903144504 68 102 0.0 5.0 0.00 0.89 0.64 97 1014.9
20260903143102 68 97 1.0 4.0 0.00 0.89 0.64 98 1014.8
20260903142245 67 89 1.0 5.0 0.00 0.88 0.64 98 1017.4
20260903141506 67 13 1.0 5.0 0.00 0.89 0.64 99 1014.6
20260903141345 67 87 1.0 3.0 0.00 0.88 0.64 99 1017.4
20260903140445 67 63 0.0 2.0 0.00 0.88 0.64 99 1017.5
20260903135545 67 90 0.0 3.0 0.00 0.89 0.64 99 1017.6
20260903134645 66 88 0.0 2.0 0.00 0.91 0.64 99 1017.7
20260903134503 66 155 0.0 2.0 0.00 1.02 0.64 99 1014.9
20260903133745 66 114 1.0 3.0 0.00 0.94 0.64 99 1017.7
20260903133103 65 124 0.0 3.0 0.00 1.02 0.64 99 1015.0
20260903132845 65 94 0.0 3.0 0.00 0.96 0.64 99 1017.9
20260903131504 64 150 0.0 3.0 0.00 1.02 0.64 99 1015.4
20260903131045 65 105 1.0 5.0 0.00 1.00 0.64 99 1018.1
20260903130145 64 97 1.0 4.0 0.00 1.01 0.64 99 1018.5
20260903130117 64 102 0.0 4.0 0.00 1.02 0.64 99 1015.7
20260903125245 64 171 0.0 5.0 0.00 1.02 0.64 99 1018.6
20260903124504 64 65 0.0 4.0 0.00 1.04 0.64 99 1015.8
20260903124345 64 81 1.0 5.0 0.00 1.03 0.64 99 1018.6
20260903123102 63 82 1.0 4.0 0.00 1.04 0.64 99 1015.8
20260903122545 64 69 1.0 4.0 0.00 1.04 0.64 99 1018.7
20260903121645 64 97 0.0 2.0 0.00 1.04 0.64 99 1018.8
20260903121504 63 82 1.0 2.0 0.00 1.04 0.64 99 1016.1
20260903120745 64 100 0.0 2.0 0.00 1.04 0.64 99 1018.7
20260903120107 63 100 0.0 3.0 0.00 1.04 0.64 99 1015.7
20260903115845 64 99 0.0 3.0 0.00 1.04 0.64 99 1018.3
20260903114945 64 0 0.0 0.0 0.00 1.04 0.64 99 1018.2
20260903114608 63 33 0.0 1.0 0.00 1.04 0.64 99 1015.4
20260903114045 64 120 0.0 3.0 0.00 1.04 0.64 99 1018.2
20260903113145 64 99 0.0 1.0 0.00 1.04 0.64 99 1018.2
20260903113002 63 89 0.0 1.0 0.00 1.04 0.64 99 1015.4
20260903112245 64 207 0.0 1.0 0.00 1.04 0.64 99 1018.0
20260903111626 63 194 0.0 1.0 0.00 1.04 0.64 99 1014.8
20260903111345 64 135 0.0 1.0 0.00 1.04 0.64 99 1017.6
20260903110445 64 208 0.0 1.0 0.00 1.04 0.64 99 1017.5
20260903110002 63 195 0.0 2.0 0.00 1.04 0.64 99 1014.8
20260903105545 64 144 0.0 2.0 0.00 1.04 0.64 99 1017.2
20260903104645 64 154 0.0 2.0 0.00 1.04 0.64 99 1017.0
20260903104632 63 111 0.0 2.0 0.00 1.04 0.64 99 1014.2
20260903103744 64 140 0.0 2.0 0.00 1.04 0.64 99 1017.1
20260903103003 63 207 0.0 1.0 0.00 1.04 0.64 99 1014.3
20260903102844 64 94 0.0 1.0 0.00 1.04 0.64 99 1017.0
20260903101945 64 0 0.0 0.0 0.00 1.04 0.64 99 1017.0
20260903101602 63 195 0.0 0.0 0.00 1.04 0.64 99 1014.2
20260903101045 64 0 0.0 0.0 0.00 1.04 0.64 99 1016.8
20260903100003 63 195 0.0 0.0 0.00 1.04 0.64 99 1014.0
20260903094609 63 195 0.0 1.0 0.02 1.04 0.64 99 1013.6
20260903093445 64 0 0.0 0.0 0.03 1.04 0.64 99 1016.5
20260903093003 64 195 0.0 1.0 0.04 1.04 0.64 99 1013.7
20260903092545 64 173 0.0 2.0 0.04 1.04 0.64 99 1016.6
20260903091645 64 168 0.0 2.0 0.04 1.04 0.64 99 1016.9
20260903091604 64 187 0.0 1.0 0.04 1.04 0.64 99 1014.1
20260903090744 64 175 0.0 2.0 0.04 1.04 0.64 99 1017.0
20260903090002 64 134 0.0 2.0 0.05 1.04 0.64 99 1014.6
20260903085844 64 102 1.0 3.0 0.05 1.04 0.64 99 1017.5
20260903084945 64 89 2.0 5.0 0.03 1.02 0.62 99 1018.1
20260903084602 64 70 1.0 4.0 0.04 1.02 0.62 99 1015.6
20260903084044 64 94 0.0 2.0 0.04 1.01 0.61 99 1018.7
20260903083145 64 98 0.0 1.0 0.04 1.00 0.60 99 1018.3
20260903083003 64 87 0.0 1.0 0.04 1.00 0.60 99 1015.3
20260903082244 64 172 0.0 2.0 0.04 1.00 0.60 99 1018.0
20260903081603 64 228 0.0 2.0 0.06 1.00 0.60 99 1015.4
20260903081345 64 194 0.0 2.0 0.07 1.00 0.60 99 1018.0
20260903080445 64 163 0.0 2.0 0.07 1.00 0.60 99 1017.1
20260903080002 64 218 0.0 2.0 0.07 0.99 0.59 99 1014.1
20260903075545 64 174 0.0 2.0 0.07 0.99 0.59 99 1016.6
20260903074644 64 172 1.0 2.0 0.06 0.98 0.58 99 1017.1
20260903074604 64 229 0.0 3.0 0.06 0.98 0.57 99 1014.3
20260903073744 64 166 0.0 4.0 0.05 0.97 0.57 99 1017.1
20260903073005 64 148 0.0 5.0 0.05 0.96 0.56 99 1014.3
20260903072844 65 165 1.0 5.0 0.05 0.96 0.56 99 1017.0
20260903071606 64 173 0.0 1.0 0.05 0.94 0.54 99 1015.2
20260903071045 65 130 0.0 3.0 0.05 0.93 0.53 99 1018.3
20260903070145 65 84 1.0 2.0 0.05 0.92 0.52 99 1018.8
20260903070002 64 79 0.0 2.0 0.05 0.92 0.52 99 1016.0
20260903065244 65 185 1.0 3.0 0.05 0.92 0.52 99 1019.0
20260903064603 64 169 0.0 3.0 0.05 0.92 0.52 99 1015.3
20260903064344 65 188 0.0 3.0 0.05 0.92 0.52 99 1018.1
20260903063445 65 120 0.0 1.0 0.05 0.92 0.52 99 1018.3
20260903063004 64 120 0.0 2.0 0.04 0.91 0.51 99 1015.7
20260903061644 65 93 1.0 2.0 0.02 0.89 0.49 99 1018.9
20260903061612 64 94 0.0 1.0 0.02 0.89 0.49 99 1016.1
20260903060744 64 98 0.0 2.0 0.00 0.87 0.48 99 1018.9
20260903060003 64 183 0.0 1.0 0.00 0.87 0.47 99 1015.6
20260903055844 64 179 0.0 1.0 0.00 0.87 0.47 99 1018.3
20260903054944 64 177 0.0 2.0 0.00 0.87 0.47 98 1017.9
20260903054602 64 193 0.0 2.0 0.00 0.87 0.47 98 1015.0
20260903054044 64 195 1.0 3.0 0.01 0.87 0.47 98 1017.9
20260903053145 64 201 0.0 2.0 0.01 0.87 0.47 98 1017.6
20260903053002 64 200 0.0 1.0 0.01 0.87 0.47 98 1014.8
20260903052244 64 199 0.0 3.0 0.08 0.87 0.47 98 1017.4
20260903051602 64 200 0.0 3.0 0.20 0.87 0.47 98 1014.9
20260903051345 64 188 0.0 3.0 0.38 0.87 0.47 98 1017.8
20260903050444 64 182 1.0 4.0 0.47 0.87 0.47 98 1018.0
20260903050002 64 198 0.0 2.0 0.47 0.87 0.47 98 1014.8
20260903045544 64 213 0.0 5.0 0.47 0.87 0.47 98 1017.4
20260903044649 65 179 0.0 2.0 0.47 0.87 0.47 98 1017.3
20260903044608 64 158 0.0 2.0 0.47 0.87 0.47 98 1014.5
20260903043002 64 85 1.0 7.0 0.46 0.86 0.46 98 1015.3
20260903042845 65 20 2.0 8.0 0.45 0.84 0.45 98 1018.2
20260903041948 64 330 4.0 8.0 0.40 0.76 0.37 98 1018.7
20260903041617 64 330 5.0 10.0 0.27 0.63 0.23 98 1016.3
20260903041045 65 339 4.0 9.0 0.09 0.45 0.06 98 1019.7
20260903040144 65 311 2.0 4.0 0.04 0.40 0.00 98 1019.3
20260903040003 64 233 0.0 4.0 0.04 0.40 0.00 98 1016.3
20260903035245 65 334 0.0 3.0 0.04 0.40 0.40 98 1018.5
20260903034603 65 313 0.0 0.0 0.04 0.40 0.40 98 1015.3
20260903034344 65 0 0.0 0.0 0.04 0.40 0.40 98 1018.2
20260903033002 65 313 0.0 3.0 0.03 0.39 0.39 98 1016.0
20260903032544 66 192 1.0 2.0 0.01 0.37 0.38 98 1018.8
20260903031644 66 181 0.0 1.0 0.00 0.36 0.36 98 1018.8
20260903031619 65 181 0.0 0.0 0.00 0.36 0.36 98 1016.0
20260903030003 65 181 0.0 0.0 0.00 0.36 0.36 97 1015.8
20260903025844 66 0 0.0 0.0 0.00 0.36 0.36 97 1018.9
20260903024602 66 181 0.0 1.0 0.00 0.36 0.36 97 1016.0
20260903024044 66 0 0.0 0.0 0.01 0.36 0.36 97 1018.7
20260903023144 66 176 0.0 1.0 0.01 0.36 0.36 96 1019.0
20260903023002 66 177 0.0 1.0 0.01 0.36 0.36 96 1016.0
20260903021602 66 174 0.0 2.0 0.01 0.36 0.36 94 1015.2
20260903020444 68 339 2.0 7.0 0.01 0.36 0.36 93 1017.4
20260903020002 68 323 2.0 9.0 0.01 0.36 0.36 92 1014.6
20260903014644 70 334 3.0 12.0 0.01 0.36 0.36 96 1018.5
20260903014611 70 242 5.0 12.0 0.01 0.36 0.36 96 1015.4
20260903013744 71 0 0.0 0.0 0.00 0.35 0.35 98 1018.2
20260903013003 71 163 0.0 2.0 0.00 0.35 0.35 98 1015.3
20260903012844 71 122 0.0 2.0 0.00 0.35 0.35 98 1018.5
20260903011944 71 206 1.0 7.0 0.04 0.35 0.35 98 1018.6
20260903011614 70 232 0.0 7.0 0.04 0.35 0.35 98 1015.6